| time (UTC) | temp C | wind direction | speed KPH | gust KPH | rain 1hr cm | rain 24hr cm | rain mn cm | humidity % | barometer mb |
| 20260508203858 | 15 | 195 | 3.2 | 0.0 | 0.00 | 0.00 | 0.00 | 42 | 1009.6 |
| 20260508203352 | 15 | 283 | 0.0 | 0.0 | 0.00 | 0.00 | 0.00 | 42 | 1009.7 |
| 20260508202846 | 15 | 288 | 0.0 | 0.0 | 0.00 | 0.00 | 0.00 | 42 | 1009.8 |
| 20260508202340 | 15 | 61 | 0.0 | 0.0 | 0.00 | 0.00 | 0.00 | 44 | 1009.7 |
| 20260508201834 | 15 | 230 | 0.0 | 0.0 | 0.00 | 0.00 | 0.00 | 42 | 1009.7 |
| 20260508201328 | 15 | 245 | 0.0 | 0.0 | 0.00 | 0.00 | 0.00 | 43 | 1009.6 |
| 20260508200822 | 15 | 273 | 0.0 | 0.0 | 0.00 | 0.00 | 0.00 | 44 | 1009.5 |
| 20260508200316 | 15 | 105 | 0.0 | 0.0 | 0.00 | 0.00 | 0.00 | 42 | 1009.5 |
| 20260508195810 | 15 | 146 | 0.0 | 0.0 | 0.00 | 0.00 | 0.00 | 44 | 1009.5 |
| 20260508195306 | 15 | 190 | 0.0 | 0.0 | 0.00 | 0.00 | 0.00 | 43 | 1009.4 |
| 20260508194758 | 15 | 172 | 3.2 | 0.0 | 0.00 | 0.00 | 0.00 | 40 | 1009.3 |
| 20260508194252 | 15 | 192 | 1.6 | 17.7 | 0.00 | 0.00 | 0.00 | 41 | 1009.3 |
| 20260508193746 | 15 | 20 | 0.0 | 17.7 | 0.00 | 0.00 | 0.00 | 41 | 1009.2 |
| 20260508193240 | 16 | 190 | 1.6 | 0.0 | 0.00 | 0.00 | 0.00 | 38 | 1009.2 |
| 20260508192734 | 16 | 110 | 0.0 | 0.0 | 0.00 | 0.00 | 0.00 | 41 | 1009.1 |
| 20260508192228 | 16 | 110 | 0.0 | 0.0 | 0.00 | 0.00 | 0.00 | 38 | 1009.1 |
| 20260508191722 | 16 | 133 | 0.0 | 0.0 | 0.00 | 0.00 | 0.00 | 39 | 1009.0 |
| 20260508191216 | 16 | 109 | 0.0 | 0.0 | 0.00 | 0.00 | 0.00 | 39 | 1009.0 |
| 20260508190710 | 16 | 156 | 0.0 | 0.0 | 0.00 | 0.00 | 0.00 | 38 | 1009.0 |
| 20260508190204 | 16 | 220 | 1.6 | 0.0 | 0.00 | 0.00 | 0.00 | 36 | 1009.0 |
| 20260508185658 | 17 | 279 | 0.0 | 20.9 | 0.00 | 0.00 | 0.00 | 38 | 1009.1 |
| 20260508185152 | 17 | 220 | 4.8 | 20.9 | 0.00 | 0.00 | 0.00 | 35 | 1009.1 |
| 20260508184646 | 16 | 219 | 0.0 | 0.0 | 0.00 | 0.00 | 0.00 | 38 | 1009.1 |
| 20260508184140 | 16 | 324 | 0.0 | 0.0 | 0.00 | 0.00 | 0.00 | 36 | 1008.9 |
| 20260508183634 | 16 | 130 | 1.6 | 0.0 | 0.00 | 0.00 | 0.00 | 37 | 1008.9 |
| 20260508183128 | 16 | 272 | 0.0 | 0.0 | 0.00 | 0.00 | 0.00 | 36 | 1008.9 |
| 20260508182622 | 16 | 140 | 0.0 | 0.0 | 0.00 | 0.00 | 0.00 | 38 | 1009.0 |
| 20260508182116 | 16 | 198 | 1.6 | 0.0 | 0.00 | 0.00 | 0.00 | 39 | 1009.0 |
| 20260508181610 | 16 | 185 | 0.0 | 0.0 | 0.00 | 0.00 | 0.00 | 37 | 1008.9 |
| 20260508181104 | 16 | 131 | 1.6 | 0.0 | 0.00 | 0.00 | 0.00 | 35 | 1009.0 |
| 20260508180558 | 16 | 74 | 1.6 | 0.0 | 0.00 | 0.00 | 0.00 | 38 | 1008.9 |
| 20260508180052 | 16 | 215 | 3.2 | 0.0 | 0.00 | 0.00 | 0.00 | 34 | 1008.9 |
| 20260508175546 | 16 | 177 | 0.0 | 0.0 | 0.00 | 0.00 | 0.00 | 35 | 1009.0 |
| 20260508175040 | 16 | 198 | 0.0 | 0.0 | 0.00 | 0.00 | 0.00 | 36 | 1009.1 |
| 20260508174534 | 16 | 199 | 1.6 | 0.0 | 0.00 | 0.00 | 0.00 | 36 | 1009.1 |
| 20260508174028 | 17 | 219 | 3.2 | 0.0 | 0.00 | 0.00 | 0.00 | 35 | 1009.0 |
| 20260508173522 | 17 | 97 | 1.6 | 0.0 | 0.00 | 0.00 | 0.00 | 37 | 1009.0 |
| 20260508173016 | 17 | 210 | 4.8 | 0.0 | 0.00 | 0.00 | 0.00 | 32 | 1009.0 |
| 20260508172510 | 17 | 184 | 0.0 | 0.0 | 0.00 | 0.00 | 0.00 | 36 | 1009.1 |
| 20260508172004 | 16 | 161 | 0.0 | 0.0 | 0.00 | 0.00 | 0.00 | 38 | 1009.2 |
| 20260508171458 | 16 | 201 | 1.6 | 0.0 | 0.00 | 0.00 | 0.00 | 35 | 1009.2 |
| 20260508170952 | 17 | 196 | 3.2 | 0.0 | 0.00 | 0.00 | 0.00 | 39 | 1009.2 |
| 20260508170446 | 17 | 130 | 0.0 | 0.0 | 0.00 | 0.00 | 0.00 | 41 | 1009.3 |
| 20260508165940 | 17 | 192 | 1.6 | 0.0 | 0.00 | 0.00 | 0.00 | 35 | 1009.2 |
| 20260508165434 | 16 | 260 | 1.6 | 0.0 | 0.00 | 0.00 | 0.00 | 38 | 1009.1 |
| 20260508164928 | 16 | 178 | 1.6 | 0.0 | 0.00 | 0.00 | 0.00 | 37 | 1009.2 |
| 20260508164422 | 16 | 209 | 6.4 | 0.0 | 0.00 | 0.00 | 0.00 | 36 | 1009.3 |
| 20260508163916 | 16 | 148 | 0.0 | 0.0 | 0.00 | 0.00 | 0.00 | 41 | 1009.4 |
| 20260508163410 | 16 | 183 | 3.2 | 0.0 | 0.00 | 0.00 | 0.00 | 39 | 1009.4 |
| 20260508162904 | 16 | 118 | 0.0 | 0.0 | 0.00 | 0.00 | 0.00 | 44 | 1009.4 |
| 20260508162358 | 16 | 205 | 1.6 | 0.0 | 0.00 | 0.00 | 0.00 | 39 | 1009.5 |
| 20260508161852 | 16 | 7 | 1.6 | 0.0 | 0.00 | 0.00 | 0.00 | 41 | 1009.2 |
| 20260508161346 | 16 | 197 | 0.0 | 0.0 | 0.00 | 0.00 | 0.00 | 42 | 1009.4 |
| 20260508160840 | 15 | 12 | 0.0 | 0.0 | 0.00 | 0.00 | 0.00 | 39 | 1009.3 |
| 20260508160334 | 15 | 202 | 1.6 | 0.0 | 0.00 | 0.00 | 0.00 | 40 | 1009.5 |
| 20260508155828 | 16 | 166 | 1.6 | 0.0 | 0.00 | 0.00 | 0.00 | 38 | 1009.5 |
| 20260508155322 | 16 | 262 | 1.6 | 0.0 | 0.00 | 0.00 | 0.00 | 42 | 1009.6 |
| 20260508154816 | 15 | 175 | 3.2 | 0.0 | 0.00 | 0.00 | 0.00 | 39 | 1009.5 |
| 20260508154310 | 15 | 206 | 3.2 | 0.0 | 0.00 | 0.00 | 0.00 | 39 | 1009.7 |
| 20260508153804 | 15 | 23 | 0.0 | 0.0 | 0.00 | 0.00 | 0.00 | 42 | 1009.6 |
| 20260508153258 | 15 | 177 | 4.8 | 0.0 | 0.00 | 0.00 | 0.00 | 38 | 1009.8 |
| 20260508152752 | 15 | 252 | 0.0 | 0.0 | 0.00 | 0.00 | 0.00 | 43 | 1009.9 |
| 20260508152246 | 15 | 199 | 3.2 | 0.0 | 0.00 | 0.00 | 0.00 | 42 | 1010.0 |
| 20260508151740 | 15 | 201 | 3.2 | 0.0 | 0.00 | 0.00 | 0.00 | 41 | 1009.9 |
| 20260508151234 | 15 | 248 | 3.2 | 0.0 | 0.00 | 0.00 | 0.00 | 38 | 1010.0 |
| 20260508150728 | 15 | 199 | 4.8 | 0.0 | 0.00 | 0.00 | 0.00 | 40 | 1010.0 |
| 20260508150222 | 14 | 221 | 1.6 | 0.0 | 0.00 | 0.00 | 0.00 | 41 | 1010.1 |
| 20260508145716 | 14 | 203 | 3.2 | 0.0 | 0.00 | 0.00 | 0.00 | 40 | 1010.1 |
| 20260508145210 | 14 | 96 | 0.0 | 0.0 | 0.00 | 0.00 | 0.00 | 41 | 1010.1 |
| 20260508144704 | 13 | 236 | 1.6 | 0.0 | 0.00 | 0.00 | 0.00 | 41 | 1010.2 |
| 20260508144158 | 13 | 200 | 3.2 | 0.0 | 0.00 | 0.00 | 0.00 | 40 | 1010.2 |
| 20260508143652 | 13 | 296 | 0.0 | 0.0 | 0.00 | 0.00 | 0.00 | 41 | 1010.3 |
| 20260508143146 | 13 | 157 | 0.0 | 0.0 | 0.00 | 0.00 | 0.00 | 40 | 1010.3 |
| 20260508142640 | 13 | 240 | 1.6 | 0.0 | 0.00 | 0.00 | 0.00 | 39 | 1010.3 |
| 20260508142134 | 13 | 233 | 1.6 | 0.0 | 0.00 | 0.00 | 0.00 | 39 | 1010.4 |
| 20260508141628 | 13 | 258 | 0.0 | 0.0 | 0.00 | 0.00 | 0.00 | 41 | 1010.4 |
| 20260508141122 | 13 | 198 | 4.8 | 0.0 | 0.00 | 0.00 | 0.00 | 40 | 1010.4 |
| 20260508140616 | 13 | 203 | 1.6 | 0.0 | 0.00 | 0.00 | 0.00 | 41 | 1010.5 |
| 20260508140110 | 13 | 217 | 0.0 | 0.0 | 0.00 | 0.00 | 0.00 | 43 | 1010.6 |
| 20260508135604 | 13 | 158 | 1.6 | 0.0 | 0.00 | 0.00 | 0.00 | 40 | 1010.7 |
| 20260508135058 | 13 | 226 | 0.0 | 0.0 | 0.00 | 0.00 | 0.00 | 44 | 1010.8 |
| 20260508134552 | 12 | 164 | 0.0 | 0.0 | 0.00 | 0.00 | 0.00 | 42 | 1010.8 |
| 20260508134046 | 12 | 187 | 0.0 | 0.0 | 0.00 | 0.00 | 0.00 | 44 | 1010.7 |
| 20260508133540 | 12 | 222 | 1.6 | 0.0 | 0.00 | 0.00 | 0.00 | 44 | 1010.9 |
| 20260508133034 | 12 | 249 | 0.0 | 0.0 | 0.00 | 0.00 | 0.00 | 45 | 1010.9 |
| 20260508132528 | 12 | 222 | 1.6 | 0.0 | 0.00 | 0.00 | 0.00 | 46 | 1010.9 |
| 20260508132022 | 12 | 179 | 1.6 | 0.0 | 0.00 | 0.00 | 0.00 | 45 | 1011.0 |
| 20260508131516 | 12 | 240 | 0.0 | 0.0 | 0.00 | 0.00 | 0.00 | 47 | 1011.0 |
| 20260508131010 | 11 | 182 | 1.6 | 0.0 | 0.00 | 0.00 | 0.00 | 48 | 1011.0 |
| 20260508130504 | 11 | 133 | 0.0 | 0.0 | 0.00 | 0.00 | 0.00 | 50 | 1011.0 |
| 20260508125958 | 11 | 131 | 0.0 | 0.0 | 0.00 | 0.00 | 0.00 | 50 | 1011.1 |
| 20260508125452 | 11 | 222 | 1.6 | 0.0 | 0.00 | 0.00 | 0.00 | 49 | 1011.1 |
| 20260508124946 | 11 | 152 | 0.0 | 0.0 | 0.00 | 0.00 | 0.00 | 49 | 1011.1 |
| 20260508124440 | 11 | 184 | 0.0 | 0.0 | 0.00 | 0.00 | 0.00 | 49 | 1011.1 |
| 20260508123934 | 11 | 213 | 0.0 | 0.0 | 0.00 | 0.00 | 0.00 | 50 | 1011.2 |
| 20260508123428 | 10 | 252 | 0.0 | 0.0 | 0.00 | 0.00 | 0.00 | 51 | 1011.2 |
| 20260508122922 | 10 | 218 | 0.0 | 0.0 | 0.00 | 0.00 | 0.00 | 53 | 1011.2 |
| 20260508122416 | 10 | 203 | 0.0 | 0.0 | 0.00 | 0.00 | 0.00 | 51 | 1011.3 |
| 20260508121910 | 10 | 263 | 1.6 | 0.0 | 0.00 | 0.00 | 0.00 | 52 | 1011.3 |
| 20260508121404 | 9 | 260 | 0.0 | 0.0 | 0.00 | 0.00 | 0.00 | 54 | 1011.2 |
| 20260508120858 | 9 | 260 | 0.0 | 0.0 | 0.00 | 0.00 | 0.00 | 55 | 1011.3 |
| 20260508120352 | 9 | 259 | 0.0 | 0.0 | 0.00 | 0.00 | 0.00 | 57 | 1011.3 |
| 20260508115846 | 8 | 260 | 0.0 | 0.0 | 0.00 | 0.00 | 0.00 | 59 | 1011.3 |
| 20260508115340 | 8 | 267 | 0.0 | 0.0 | 0.00 | 0.00 | 0.00 | 60 | 1011.4 |
| 20260508114834 | 8 | 242 | 0.0 | 0.0 | 0.00 | 0.00 | 0.00 | 62 | 1011.4 |
| 20260508114328 | 7 | 220 | 0.0 | 0.0 | 0.00 | 0.00 | 0.00 | 63 | 1011.4 |
| 20260508113822 | 7 | 193 | 0.0 | 0.0 | 0.00 | 0.00 | 0.00 | 67 | 1011.4 |
| 20260508113316 | 7 | 193 | 0.0 | 0.0 | 0.00 | 0.00 | 0.00 | 69 | 1011.5 |
| 20260508112810 | 6 | 193 | 0.0 | 0.0 | 0.00 | 0.00 | 0.00 | 71 | 1011.5 |
| 20260508112306 | 6 | 138 | 0.0 | 0.0 | 0.00 | 0.00 | 0.00 | 79 | 1011.4 |
| 20260508111758 | 6 | 138 | 0.0 | 0.0 | 0.00 | 0.00 | 0.00 | 85 | 1011.4 |
| 20260508111252 | 5 | 138 | 0.0 | 0.0 | 0.00 | 0.00 | 0.00 | 87 | 1011.4 |
| 20260508110746 | 5 | 138 | 0.0 | 0.0 | 0.00 | 0.00 | 0.00 | 88 | 1011.5 |
| 20260508110240 | 5 | 138 | 0.0 | 0.0 | 0.00 | 0.00 | 0.00 | 89 | 1011.4 |
| 20260508105734 | 4 | 138 | 0.0 | 0.0 | 0.00 | 0.00 | 0.00 | 89 | 1011.4 |
| 20260508105228 | 4 | 138 | 0.0 | 0.0 | 0.00 | 0.00 | 0.00 | 89 | 1011.4 |
| 20260508104722 | 3 | 138 | 0.0 | 0.0 | 0.00 | 0.00 | 0.00 | 89 | 1011.3 |
| 20260508104216 | 3 | 138 | 0.0 | 0.0 | 0.00 | 0.00 | 0.00 | 88 | 1011.2 |
| 20260508103710 | 3 | 138 | 0.0 | 0.0 | 0.00 | 0.00 | 0.00 | 87 | 1011.2 |
| 20260508103204 | 3 | 138 | 0.0 | 0.0 | 0.00 | 0.00 | 0.00 | 87 | 1011.1 |
| 20260508102658 | 3 | 138 | 0.0 | 0.0 | 0.00 | 0.00 | 0.00 | 87 | 1011.0 |
| 20260508102152 | 3 | 138 | 0.0 | 0.0 | 0.00 | 0.00 | 0.00 | 87 | 1010.9 |
| 20260508101646 | 3 | 138 | 0.0 | 0.0 | 0.00 | 0.00 | 0.00 | 87 | 1010.9 |
| 20260508101140 | 3 | 138 | 0.0 | 0.0 | 0.00 | 0.00 | 0.00 | 87 | 1010.9 |
| 20260508100634 | 3 | 138 | 0.0 | 0.0 | 0.00 | 0.00 | 0.00 | 87 | 1010.9 |
| 20260508100128 | 3 | 138 | 0.0 | 0.0 | 0.00 | 0.00 | 0.00 | 86 | 1010.8 |
| 20260508095622 | 3 | 138 | 0.0 | 0.0 | 0.00 | 0.00 | 0.00 | 86 | 1010.8 |
| 20260508095116 | 3 | 138 | 0.0 | 0.0 | 0.00 | 0.00 | 0.00 | 85 | 1010.8 |
| 20260508094610 | 3 | 138 | 0.0 | 0.0 | 0.00 | 0.00 | 0.00 | 85 | 1010.7 |
| 20260508094104 | 3 | 138 | 0.0 | 0.0 | 0.00 | 0.00 | 0.00 | 84 | 1010.7 |
| 20260508093558 | 3 | 138 | 0.0 | 0.0 | 0.00 | 0.00 | 0.00 | 84 | 1010.5 |
| 20260508093052 | 3 | 138 | 0.0 | 0.0 | 0.00 | 0.00 | 0.00 | 84 | 1010.4 |
| 20260508092546 | 3 | 138 | 0.0 | 0.0 | 0.00 | 0.00 | 0.00 | 84 | 1010.5 |
| 20260508092040 | 3 | 138 | 0.0 | 0.0 | 0.00 | 0.00 | 0.00 | 84 | 1010.5 |
| 20260508091534 | 3 | 138 | 0.0 | 0.0 | 0.00 | 0.00 | 0.00 | 84 | 1010.5 |
| 20260508091028 | 3 | 138 | 0.0 | 0.0 | 0.00 | 0.00 | 0.00 | 84 | 1010.4 |
| 20260508090522 | 3 | 138 | 0.0 | 0.0 | 0.00 | 0.00 | 0.00 | 84 | 1010.4 |
| 20260508090016 | 3 | 138 | 0.0 | 0.0 | 0.00 | 0.00 | 0.00 | 84 | 1010.4 |
| 20260508085510 | 3 | 138 | 0.0 | 0.0 | 0.00 | 0.00 | 0.00 | 83 | 1010.4 |
| 20260508085004 | 3 | 138 | 0.0 | 0.0 | 0.00 | 0.00 | 0.00 | 82 | 1010.3 |
| 20260508084458 | 3 | 138 | 0.0 | 0.0 | 0.00 | 0.00 | 0.00 | 82 | 1010.3 |
| 20260508083952 | 3 | 138 | 0.0 | 0.0 | 0.00 | 0.00 | 0.00 | 82 | 1010.4 |
| 20260508083446 | 3 | 138 | 0.0 | 0.0 | 0.00 | 0.00 | 0.00 | 81 | 1010.4 |
| 20260508082940 | 3 | 138 | 0.0 | 0.0 | 0.00 | 0.00 | 0.00 | 80 | 1010.4 |
| 20260508082434 | 3 | 138 | 0.0 | 0.0 | 0.00 | 0.00 | 0.00 | 79 | 1010.3 |
| 20260508081928 | 3 | 138 | 0.0 | 0.0 | 0.00 | 0.00 | 0.00 | 79 | 1010.2 |
| 20260508081422 | 3 | 138 | 0.0 | 0.0 | 0.00 | 0.00 | 0.00 | 78 | 1010.1 |
| 20260508080916 | 3 | 138 | 0.0 | 0.0 | 0.00 | 0.00 | 0.00 | 78 | 1010.0 |
| 20260508080410 | 3 | 138 | 0.0 | 0.0 | 0.00 | 0.00 | 0.00 | 77 | 1010.0 |
| 20260508075904 | 4 | 138 | 0.0 | 0.0 | 0.00 | 0.00 | 0.00 | 77 | 1009.9 |
| 20260508075358 | 4 | 138 | 0.0 | 0.0 | 0.00 | 0.00 | 0.00 | 77 | 1009.8 |
| 20260508074852 | 4 | 138 | 0.0 | 0.0 | 0.00 | 0.00 | 0.00 | 76 | 1009.7 |
| 20260508074346 | 4 | 138 | 0.0 | 0.0 | 0.00 | 0.00 | 0.00 | 76 | 1009.6 |
| 20260508073840 | 4 | 138 | 0.0 | 0.0 | 0.00 | 0.00 | 0.00 | 76 | 1009.5 |
| 20260508073334 | 5 | 138 | 0.0 | 0.0 | 0.00 | 0.00 | 0.00 | 76 | 1009.3 |
| 20260508072828 | 5 | 138 | 0.0 | 0.0 | 0.00 | 0.00 | 0.00 | 77 | 1009.2 |
| 20260508072322 | 5 | 138 | 0.0 | 0.0 | 0.00 | 0.00 | 0.00 | 75 | 1009.2 |
| 20260508071816 | 5 | 138 | 0.0 | 0.0 | 0.00 | 0.00 | 0.00 | 73 | 1009.1 |
| 20260508071310 | 5 | 138 | 0.0 | 0.0 | 0.00 | 0.00 | 0.00 | 73 | 1009.0 |
| 20260508070804 | 5 | 138 | 0.0 | 0.0 | 0.00 | 0.00 | 0.00 | 73 | 1008.9 |
| 20260508070258 | 5 | 138 | 0.0 | 0.0 | 0.00 | 0.00 | 0.00 | 72 | 1008.9 |
| 20260508065752 | 5 | 138 | 0.0 | 0.0 | 0.00 | 0.00 | 0.00 | 71 | 1008.9 |
| 20260508065246 | 5 | 138 | 0.0 | 0.0 | 0.00 | 0.00 | 0.00 | 71 | 1008.7 |
| 20260508064740 | 5 | 138 | 0.0 | 0.0 | 0.00 | 0.00 | 0.00 | 71 | 1008.7 |
| 20260508064234 | 5 | 138 | 0.0 | 0.0 | 0.00 | 0.00 | 0.00 | 70 | 1008.7 |
| 20260508063728 | 5 | 138 | 0.0 | 0.0 | 0.00 | 0.00 | 0.00 | 69 | 1008.7 |
| 20260508063222 | 5 | 138 | 0.0 | 0.0 | 0.00 | 0.00 | 0.00 | 71 | 1008.8 |
| 20260508062716 | 5 | 138 | 0.0 | 0.0 | 0.00 | 0.00 | 0.00 | 69 | 1008.8 |
| 20260508062210 | 6 | 138 | 0.0 | 0.0 | 0.00 | 0.00 | 0.00 | 68 | 1008.9 |
| 20260508061704 | 6 | 138 | 0.0 | 0.0 | 0.00 | 0.00 | 0.00 | 70 | 1008.8 |
| 20260508061158 | 6 | 138 | 0.0 | 0.0 | 0.00 | 0.00 | 0.00 | 68 | 1008.8 |
| 20260508060652 | 6 | 138 | 0.0 | 0.0 | 0.00 | 0.00 | 0.00 | 69 | 1008.8 |
| 20260508060146 | 6 | 138 | 0.0 | 0.0 | 0.00 | 0.00 | 0.00 | 69 | 1008.8 |
| 20260508055640 | 6 | 138 | 0.0 | 0.0 | 0.00 | 0.00 | 0.00 | 69 | 1008.7 |
| 20260508055134 | 6 | 138 | 0.0 | 0.0 | 0.00 | 0.00 | 0.00 | 70 | 1008.7 |
| 20260508054628 | 6 | 138 | 0.0 | 0.0 | 0.00 | 0.00 | 0.00 | 68 | 1008.8 |
| 20260508054122 | 6 | 138 | 0.0 | 0.0 | 0.00 | 0.00 | 0.00 | 71 | 1008.7 |
| 20260508053616 | 6 | 138 | 0.0 | 0.0 | 0.00 | 0.00 | 0.00 | 71 | 1008.7 |
| 20260508053110 | 6 | 138 | 0.0 | 0.0 | 0.00 | 0.00 | 0.00 | 69 | 1008.8 |
| 20260508052604 | 6 | 138 | 0.0 | 0.0 | 0.00 | 0.00 | 0.00 | 69 | 1008.8 |
| 20260508052058 | 6 | 138 | 0.0 | 0.0 | 0.00 | 0.00 | 0.00 | 70 | 1008.8 |
| 20260508051552 | 6 | 138 | 0.0 | 0.0 | 0.00 | 0.00 | 0.00 | 69 | 1008.9 |
| 20260508051046 | 6 | 138 | 0.0 | 0.0 | 0.00 | 0.00 | 0.00 | 69 | 1008.8 |
| 20260508050540 | 6 | 138 | 0.0 | 0.0 | 0.00 | 0.00 | 0.00 | 69 | 1008.9 |
| 20260508050034 | 6 | 138 | 0.0 | 0.0 | 0.00 | 0.00 | 0.00 | 70 | 1008.9 |
| 20260508045528 | 6 | 138 | 0.0 | 0.0 | 0.00 | 0.00 | 0.00 | 71 | 1008.9 |
| 20260508045022 | 6 | 138 | 0.0 | 0.0 | 0.00 | 0.00 | 0.00 | 73 | 1008.9 |
| 20260508044516 | 6 | 138 | 0.0 | 0.0 | 0.00 | 0.00 | 0.00 | 74 | 1008.9 |
| 20260508044010 | 6 | 138 | 0.0 | 0.0 | 0.00 | 0.00 | 0.00 | 74 | 1008.9 |
| 20260508043504 | 6 | 138 | 0.0 | 0.0 | 0.00 | 0.00 | 0.00 | 73 | 1009.0 |
| 20260508042958 | 6 | 138 | 0.0 | 0.0 | 0.00 | 0.00 | 0.00 | 72 | 1008.9 |
| 20260508042452 | 6 | 138 | 0.0 | 0.0 | 0.00 | 0.00 | 0.00 | 72 | 1008.9 |
| 20260508041946 | 7 | 138 | 0.0 | 0.0 | 0.00 | 0.00 | 0.00 | 72 | 1008.9 |
| 20260508041440 | 7 | 138 | 0.0 | 0.0 | 0.00 | 0.00 | 0.00 | 70 | 1008.9 |
| 20260508040934 | 7 | 138 | 0.0 | 0.0 | 0.00 | 0.00 | 0.00 | 71 | 1009.0 |
| 20260508040428 | 7 | 138 | 0.0 | 0.0 | 0.00 | 0.00 | 0.00 | 70 | 1008.9 |
| 20260508035922 | 7 | 138 | 0.0 | 0.0 | 0.00 | 0.00 | 0.00 | 70 | 1009.0 |
| 20260508035416 | 7 | 138 | 0.0 | 0.0 | 0.00 | 0.00 | 0.00 | 70 | 1009.0 |
| 20260508034910 | 7 | 138 | 0.0 | 0.0 | 0.00 | 0.00 | 0.00 | 69 | 1009.0 |
| 20260508034404 | 7 | 138 | 0.0 | 0.0 | 0.00 | 0.00 | 0.00 | 67 | 1009.0 |
| 20260508033858 | 7 | 138 | 0.0 | 0.0 | 0.00 | 0.00 | 0.00 | 65 | 1008.9 |
| 20260508033352 | 7 | 138 | 0.0 | 0.0 | 0.00 | 0.00 | 0.00 | 65 | 1008.9 |
| 20260508032846 | 7 | 138 | 0.0 | 0.0 | 0.00 | 0.00 | 0.00 | 64 | 1009.0 |
| 20260508032340 | 8 | 138 | 0.0 | 0.0 | 0.00 | 0.00 | 0.00 | 63 | 1009.0 |
| 20260508031834 | 8 | 138 | 0.0 | 0.0 | 0.00 | 0.00 | 0.00 | 63 | 1009.0 |
| 20260508031328 | 8 | 138 | 0.0 | 0.0 | 0.00 | 0.00 | 0.00 | 63 | 1009.0 |
| 20260508030822 | 8 | 138 | 0.0 | 0.0 | 0.00 | 0.00 | 0.00 | 63 | 1009.0 |
| 20260508030316 | 8 | 138 | 0.0 | 0.0 | 0.00 | 0.00 | 0.00 | 64 | 1009.0 |
| 20260508025810 | 8 | 138 | 0.0 | 0.0 | 0.00 | 0.00 | 0.00 | 61 | 1008.9 |
| 20260508025306 | 8 | 138 | 0.0 | 0.0 | 0.00 | 0.00 | 0.00 | 60 | 1008.9 |
| 20260508024758 | 8 | 138 | 0.0 | 0.0 | 0.00 | 0.00 | 0.00 | 60 | 1009.0 |
| 20260508024252 | 8 | 138 | 0.0 | 0.0 | 0.00 | 0.00 | 0.00 | 59 | 1009.0 |
| 20260508023746 | 9 | 138 | 0.0 | 0.0 | 0.00 | 0.00 | 0.00 | 58 | 1008.9 |
| 20260508023240 | 9 | 138 | 0.0 | 0.0 | 0.00 | 0.00 | 0.00 | 58 | 1008.8 |
| 20260508022734 | 9 | 138 | 0.0 | 0.0 | 0.00 | 0.00 | 0.00 | 58 | 1008.8 |
| 20260508022228 | 9 | 138 | 0.0 | 0.0 | 0.00 | 0.00 | 0.00 | 57 | 1008.8 |
| 20260508021722 | 10 | 138 | 0.0 | 0.0 | 0.00 | 0.00 | 0.00 | 56 | 1008.9 |
| 20260508021216 | 10 | 138 | 0.0 | 0.0 | 0.00 | 0.00 | 0.00 | 56 | 1008.9 |
| 20260508020710 | 10 | 138 | 0.0 | 0.0 | 0.00 | 0.00 | 0.00 | 56 | 1008.9 |
| 20260508020204 | 10 | 138 | 0.0 | 0.0 | 0.00 | 0.00 | 0.00 | 54 | 1008.9 |
| 20260508015658 | 10 | 138 | 0.0 | 0.0 | 0.00 | 0.00 | 0.00 | 53 | 1008.9 |
| 20260508015152 | 10 | 138 | 0.0 | 0.0 | 0.00 | 0.00 | 0.00 | 52 | 1008.9 |
| 20260508014646 | 10 | 138 | 0.0 | 0.0 | 0.00 | 0.00 | 0.00 | 52 | 1008.9 |
| 20260508014140 | 10 | 138 | 0.0 | 0.0 | 0.00 | 0.00 | 0.00 | 52 | 1008.9 |
| 20260508013634 | 10 | 138 | 0.0 | 0.0 | 0.00 | 0.00 | 0.00 | 52 | 1008.7 |
| 20260508013128 | 11 | 138 | 0.0 | 0.0 | 0.00 | 0.00 | 0.00 | 50 | 1008.7 |
| 20260508012622 | 11 | 138 | 0.0 | 0.0 | 0.00 | 0.00 | 0.00 | 49 | 1008.7 |
| 20260508012116 | 11 | 138 | 0.0 | 0.0 | 0.00 | 0.00 | 0.00 | 50 | 1008.6 |
| 20260508011610 | 11 | 138 | 0.0 | 0.0 | 0.00 | 0.00 | 0.00 | 49 | 1008.5 |
| 20260508011104 | 11 | 138 | 0.0 | 0.0 | 0.00 | 0.00 | 0.00 | 49 | 1008.4 |
| 20260508010558 | 11 | 138 | 0.0 | 0.0 | 0.00 | 0.00 | 0.00 | 48 | 1008.3 |
| 20260508010052 | 11 | 138 | 0.0 | 0.0 | 0.00 | 0.00 | 0.00 | 48 | 1008.2 |
| 20260508005546 | 11 | 138 | 0.0 | 0.0 | 0.00 | 0.00 | 0.00 | 47 | 1008.1 |
| 20260508005040 | 11 | 138 | 0.0 | 0.0 | 0.00 | 0.00 | 0.00 | 47 | 1008.1 |
| 20260508004534 | 12 | 138 | 0.0 | 0.0 | 0.00 | 0.00 | 0.00 | 47 | 1007.9 |
| 20260508004028 | 12 | 138 | 0.0 | 0.0 | 0.00 | 0.00 | 0.00 | 46 | 1007.8 |
| 20260508003522 | 12 | 138 | 0.0 | 0.0 | 0.00 | 0.00 | 0.00 | 46 | 1007.7 |
| 20260508003016 | 12 | 138 | 0.0 | 0.0 | 0.00 | 0.00 | 0.00 | 45 | 1007.5 |
| 20260508002510 | 12 | 138 | 0.0 | 0.0 | 0.00 | 0.00 | 0.00 | 46 | 1007.4 |
| 20260508002004 | 12 | 152 | 0.0 | 0.0 | 0.00 | 0.00 | 0.00 | 45 | 1007.3 |
| 20260508001458 | 12 | 152 | 0.0 | 0.0 | 0.00 | 0.00 | 0.00 | 45 | 1007.3 |
| 20260508000952 | 12 | 152 | 0.0 | 0.0 | 0.00 | 0.00 | 0.00 | 44 | 1007.2 |
| 20260508000446 | 13 | 152 | 0.0 | 0.0 | 0.00 | 0.00 | 0.00 | 45 | 1007.2 |
| 20260507235940 | 13 | 152 | 0.0 | 0.0 | 0.00 | 0.00 | 0.00 | 43 | 1007.2 |
| 20260507235434 | 13 | 152 | 0.0 | 0.0 | 0.00 | 0.00 | 0.00 | 43 | 1007.1 |
| 20260507234928 | 13 | 152 | 0.0 | 0.0 | 0.00 | 0.00 | 0.00 | 42 | 1007.1 |
| 20260507234422 | 13 | 152 | 0.0 | 0.0 | 0.00 | 0.00 | 0.00 | 45 | 1007.0 |
| 20260507233916 | 13 | 208 | 0.0 | 0.0 | 0.00 | 0.00 | 0.00 | 42 | 1007.0 |
| 20260507233410 | 13 | 257 | 0.0 | 0.0 | 0.00 | 0.00 | 0.00 | 41 | 1007.0 |
| 20260507232904 | 14 | 258 | 0.0 | 0.0 | 0.00 | 0.00 | 0.00 | 40 | 1006.9 |
| 20260507232358 | 14 | 84 | 0.0 | 0.0 | 0.00 | 0.00 | 0.00 | 42 | 1006.8 |
| 20260507231852 | 14 | 84 | 0.0 | 0.0 | 0.00 | 0.00 | 0.00 | 41 | 1006.7 |
| 20260507231346 | 15 | 133 | 0.0 | 0.0 | 0.00 | 0.00 | 0.00 | 39 | 1006.7 |
| 20260507230840 | 15 | 121 | 0.0 | 0.0 | 0.00 | 0.00 | 0.00 | 43 | 1006.7 |
| 20260507230334 | 15 | 121 | 0.0 | 0.0 | 0.00 | 0.00 | 0.00 | 40 | 1006.6 |
| 20260507225828 | 15 | 124 | 0.0 | 0.0 | 0.00 | 0.00 | 0.00 | 41 | 1006.5 |
| 20260507225322 | 15 | 203 | 0.0 | 0.0 | 0.00 | 0.00 | 0.00 | 39 | 1006.4 |
| 20260507224816 | 15 | 236 | 0.0 | 0.0 | 0.00 | 0.00 | 0.00 | 40 | 1006.4 |
| 20260507224310 | 15 | 55 | 0.0 | 0.0 | 0.00 | 0.00 | 0.00 | 37 | 1006.4 |
| 20260507223804 | 16 | 198 | 0.0 | 0.0 | 0.00 | 0.00 | 0.00 | 37 | 1006.2 |
| 20260507223258 | 16 | 235 | 0.0 | 0.0 | 0.00 | 0.00 | 0.00 | 36 | 1006.2 |
| 20260507222752 | 16 | 241 | 0.0 | 0.0 | 0.00 | 0.00 | 0.00 | 35 | 1006.1 |
| 20260507222246 | 16 | 216 | 0.0 | 0.0 | 0.00 | 0.00 | 0.00 | 34 | 1006.1 |
| 20260507221740 | 16 | 162 | 0.0 | 0.0 | 0.00 | 0.00 | 0.00 | 35 | 1006.1 |
| 20260507221234 | 17 | 193 | 0.0 | 0.0 | 0.00 | 0.00 | 0.00 | 35 | 1006.1 |
| 20260507220728 | 17 | 171 | 0.0 | 0.0 | 0.00 | 0.00 | 0.00 | 36 | 1006.1 |
| 20260507220222 | 17 | 171 | 0.0 | 0.0 | 0.00 | 0.00 | 0.00 | 36 | 1005.9 |
| 20260507215716 | 17 | 179 | 0.0 | 0.0 | 0.00 | 0.00 | 0.00 | 34 | 1005.9 |
| 20260507215210 | 17 | 182 | 0.0 | 0.0 | 0.00 | 0.00 | 0.00 | 33 | 1005.9 |
| 20260507214704 | 18 | 193 | 0.0 | 0.0 | 0.00 | 0.00 | 0.00 | 34 | 1005.7 |
| 20260507214158 | 18 | 71 | 0.0 | 0.0 | 0.00 | 0.00 | 0.00 | 33 | 1005.7 |
| 20260507213652 | 18 | 219 | 0.0 | 0.0 | 0.00 | 0.00 | 0.00 | 36 | 1005.7 |
| 20260507213146 | 18 | 210 | 0.0 | 0.0 | 0.00 | 0.00 | 0.00 | 33 | 1005.5 |
| 20260507212640 | 18 | 193 | 1.6 | 0.0 | 0.00 | 0.00 | 0.00 | 31 | 1005.6 |
| 20260507212134 | 18 | 152 | 0.0 | 0.0 | 0.00 | 0.00 | 0.00 | 32 | 1005.5 |
| 20260507211628 | 18 | 196 | 0.0 | 0.0 | 0.00 | 0.00 | 0.00 | 31 | 1005.5 |
| 20260507211122 | 18 | 206 | 0.0 | 0.0 | 0.00 | 0.00 | 0.00 | 31 | 1005.5 |
| 20260507210616 | 18 | 170 | 0.0 | 0.0 | 0.00 | 0.00 | 0.00 | 31 | 1005.5 |
| 20260507210110 | 18 | 220 | 0.0 | 0.0 | 0.00 | 0.00 | 0.00 | 32 | 1005.4 |
| 20260507205604 | 18 | 202 | 0.0 | 0.0 | 0.00 | 0.00 | 0.00 | 35 | 1005.3 |
| 20260507205058 | 18 | 200 | 1.6 | 0.0 | 0.00 | 0.00 | 0.00 | 32 | 1005.3 |
| 20260507204552 | 18 | 194 | 1.6 | 0.0 | 0.00 | 0.00 | 0.00 | 32 | 1005.3 |
| 20260507204046 | 18 | 208 | 0.0 | 0.0 | 0.00 | 0.00 | 0.00 | 34 | 1005.3 |